Terminal Aerodrome Forecast
Issued by NWS Upton, NY

Home | Current Version | Previous Version | Text Only | Print | Product List | Glossary On
Versions: 1 2 3 4 5 6 7 8 9 10 11 12 13 14 15 16 17 18 19 20 21 22 23 24 25 26 27 28 29 30 31 32
256
FTUS41 KOKX 110525
TAFLGA
TAF
KLGA 110525Z 1106/1206 27014G22KT P6SM OVC060
     FM110900 29016G25KT P6SM BKN045
     FM111500 29022G33KT P6SM BKN050
     FM120400 30016G28KT P6SM FEW040=

USA.gov is the U.S. government's official web portal to all federal, state and local government web resources and services.